Weather Roundup
Issued by NWS Springfield, MO

Home | Current Version | Previous Version | Text Only | Print | Product List | Glossary On
Versions: 1 2 3 4 5 6 7 8 9 10 11 12 13 14 15 16 17 18 19 20 21 22 23 24 25 26 27 28 29 30 31 32 33 34 35 36 37 38 39 40 41 42 43 44 45 46 47 48 49 50
000
NZUS99 KSGF 280457
HRRSGF

HOURLY WEATHER
NATIONAL WEATHER SERVICE SPRINGFIELD MO
1200 AM CDT SUN AUG 28 2016

......SGF CWA......

CITY           SKY/WX    TMP DP  RH WIND       PRES   REMARKS
SPRINGFIELD    CLEAR     75  68  78 S7        30.10R
JOPLIN         CLEAR     74  70  87 CALM      30.08R
WEST PLAINS    CLEAR     72  69  90 CALM      30.14S

......SURROUNDING SGF CWA......

CITY           SKY/WX    TMP DP  RH WIND       PRES   REMARKS
CHANUTE        CLEAR     76  71  85 SE6       30.06R
PARSONS        CLEAR     77  70  79 SE3       30.07R
COFFEYVILLE    CLEAR     77  70  79 SE3       30.06R
EMPORIA        CLEAR     71  68  90 S7        30.07R
HARRISON AR    CLEAR     72  70  93 CALM      30.12R

......KANSAS AND MISSOURI......

CITY           SKY/WX    TMP DP  RH WIND       PRES   REMARKS
KANSAS CTY INT MOCLDY    73  68  84 SE6       30.07R
SEDALIA        CLEAR     74  71  91 S6        30.10R
ST JOSEPH      CLOUDY    74  69  85 SE6       30.07R
ST LOUIS       CLOUDY    78  70  76 E6        30.11R
WICHITA        PTCLDY    78  68  71 SE7       30.04S
TOPEKA         CLEAR     73  69  87 CALM      30.05R
OLATHE         CLEAR     76  72  87 SE3       30.08R

......TENNESSEE......

CITY           SKY/WX    TMP DP  RH WIND       PRES   REMARKS
MEMPHIS        NOT AVBL
NASHVILLE      CLEAR     74  72  93 CALM      30.13S

......ARKANSAS.......

CITY           SKY/WX    TMP DP  RH WIND       PRES   REMARKS
FAYETTEVILLE   CLEAR     70  70 100 CALM      30.11R FOG
FT SMITH       CLEAR     77  73  87 NE5       30.05R
LITTLE ROCK    PTCLDY    80  73  79 NE3       30.06R

......OKLAHOMA.......

CITY           SKY/WX    TMP DP  RH WIND       PRES   REMARKS
TULSA          PTCLDY    81  72  74 SE9       30.04R
PONCA CITY     PTCLDY    81  66  60 S8G16     30.04R
MCALESTER      CLEAR     76  71  85 E5        30.06R
OKLAHOMA CITY  MOCLDY    75  70  84 S5        30.07R

......IOWA............

CITY           SKY/WX    TMP DP  RH WIND       PRES   REMARKS
DES MOINES     NOT AVBL
QUAD CITIES    MOCLDY    73  70  90 NE5       30.09R

......ILLINOIS........

CITY           SKY/WX    TMP DP  RH WIND       PRES   REMARKS
QUINCY         CLEAR     76  73  91 SE6       30.08S
CHICAGO        MOCLDY    75  71  87 W5        30.08S




USA.gov is the U.S. government's official web portal to all federal, state and local government web resources and services.